(335082) = 2004 SZ15

Discovered at Anderson Mesa on 2004-09-17 by LONEOS.

Orbit

Orbit type: Main Belt

Note: WebGL enabled browser required.

epoch2024-03-31.0
epoch JD2460400.5
perihelion date2020-11-09.27743
perihelion JD2459162.77743
argument of perihelion (°)257.81248
ascending node (°)65.00566
inclination (°)5.09152
eccentricity0.3322526
perihelion distance (AU)1.7061541
Tisserand w.r.t. Jupiter3.4
ΔV w.r.t. Earth (km/sec)8.4
semimajor axis (AU)2.5550890
mean anomaly (°)298.68823
mean daily motion (°/day)0.24132080
aphelion distance (AU)3.404
period (years)4.08
P-vector [x]0.79322567
P-vector [y]-0.51847639
P-vector [z]-0.31933567
Q-vector [x]0.60359186
Q-vector [y]0.73875302
Q-vector [z]0.29986805
absolute magnitude17.43
phase slope0.15
uncertainty0
referenceMPEC 2024-F50
observations used98
oppositions8
arc length (days)8579
first opposition used2000
last opposition used2024
residual rms (arc-secs)0.67
perturbers coarse indicatorM-v
perturbers precise indicator003Ek
first observation date used2000-09-22.0
last observation date used2024-03-19.0
computer nameMPCLINUX
JD of orbit computation2456146.788485
perihelion JD uncertainty (days)1.2794E-04
argument of perihelion uncertainty (°)1.8998E-04
ascending node uncertainty (°)1.3664E-04
inclination uncertainty (°)1.1402E-05
eccentricity uncertainty 9.1298E-07
perihelion distance uncertainty (AU)2.4625E-06
Minimum Orbit Intersection Distances (in AU)
for orbit epoch: 2460400.5, reference: E2024-F50
Mercury1.28779
Venus0.97871
Earth0.70279
Mars0.33004
Jupiter1.95447
Saturn5.79633
Uranus15.0818
Neptune26.9124

Observations

100 total observations over interval: 2000 09 22.33436 – 2024 03 19.638164
These data are available for download (format description).

Date (UT) J2000 RA J2000 Dec Magn Location Ref
2000 09 22.33436 02 07 23.22 +04 45 10.5 19.3 R 699 – Lowell Observatory-LONEOS MPS 118483
2000 09 22.35450 02 07 22.52 +04 45 07.4   699 – Lowell Observatory-LONEOS MPS 118483
2000 09 22.37461 02 07 21.74 +04 45 05.2   699 – Lowell Observatory-LONEOS MPS 118483
2000 09 22.39475 02 07 21.03 +04 45 02.6   699 – Lowell Observatory-LONEOS MPS 118483
2000 10 02.34574 02 00 09.45 +04 21 56.6 19.1   704 – Lincoln Laboratory ETS, New Mexico MPS 118483
2000 10 02.36013 02 00 08.70 +04 21 54.2 19.5   704 – Lincoln Laboratory ETS, New Mexico MPS 118483
2000 10 02.40378 02 00 06.29 +04 21 47.6 19.7   704 – Lincoln Laboratory ETS, New Mexico MPS 118483
2004 09 08.23552 00 37 03.22 -07 40 18.1 19.4   704 – Lincoln Laboratory ETS, New Mexico MPS 115850
2004 09 08.24697 00 37 02.83 -07 40 19.3 19.3   704 – Lincoln Laboratory ETS, New Mexico MPS 115850
2004 09 08.25847 00 37 02.34 -07 40 22.8 18.8   704 – Lincoln Laboratory ETS, New Mexico MPS 115850
2004 09 08.26990 00 37 01.91 -07 40 24.1 19.2   704 – Lincoln Laboratory ETS, New Mexico MPS 115850
2004 09 08.28143 00 37 01.43 -07 40 26.8 19.1   704 – Lincoln Laboratory ETS, New Mexico MPS 115850
2004 09 17.35299 00 30 35.27 -08 08 50.0 18.3 R 699 – Lowell Observatory-LONEOS MPS 114638
2004 09 17.36274 00 30 34.84 -08 08 51.7   699 – Lowell Observatory-LONEOS MPS 114638
2004 09 17.37246 00 30 34.32 -08 08 53.6   699 – Lowell Observatory-LONEOS MPS 114638
2004 09 17.38220 00 30 33.81 -08 08 55.3   699 – Lowell Observatory-LONEOS MPS 114638
2004 09 21.29640 00 27 23.12 -08 18 34.2 18.3   704 – Lincoln Laboratory ETS, New Mexico MPS 114638
2004 09 21.30919 00 27 22.45 -08 18 35.7 19.1   704 – Lincoln Laboratory ETS, New Mexico MPS 114638
2004 09 21.32211 00 27 21.72 -08 18 37.5 18.8   704 – Lincoln Laboratory ETS, New Mexico MPS 114638
2004 09 21.33484 00 27 21.09 -08 18 39.0 18.8   704 – Lincoln Laboratory ETS, New Mexico MPS 114638
2004 09 21.34774 00 27 20.36 -08 18 41.0 18.8   704 – Lincoln Laboratory ETS, New Mexico MPS 114638
2004 10 03.39516 00 17 26.07 -08 31 31.4 18.5   644 – Palomar Mountain/NEAT MPS 115850
2004 10 03.41755 00 17 24.95 -08 31 31.2 18.6   644 – Palomar Mountain/NEAT MPS 115850
2004 10 03.44014 00 17 23.91 -08 31 30.8 18.6   644 – Palomar Mountain/NEAT MPS 115850
2004 10 04.38801 00 16 40.27 -08 31 15.2 18.3   644 – Palomar Mountain/NEAT MPS 117682
2004 10 04.41534 00 16 38.99 -08 31 14.2 18.4   644 – Palomar Mountain/NEAT MPS 117682
2004 10 04.43833 00 16 37.85 -08 31 13.5 18.8   644 – Palomar Mountain/NEAT MPS 117682
2004 10 06.28042 00 15 15.83 -08 30 07.4 19.4   704 – Lincoln Laboratory ETS, New Mexico MPS 115850
2004 10 06.29184 00 15 15.29 -08 30 06.6 19.2   704 – Lincoln Laboratory ETS, New Mexico MPS 115850
2004 10 06.30321 00 15 14.75 -08 30 04.8 19.2   704 – Lincoln Laboratory ETS, New Mexico MPS 115850
2004 10 09.19959 00 13 13.03 -08 26 48.5 19.2   704 – Lincoln Laboratory ETS, New Mexico MPS 116743
2004 10 09.21056 00 13 12.49 -08 26 47.0 19.6   704 – Lincoln Laboratory ETS, New Mexico MPS 116743
2004 10 09.22154 00 13 12.02 -08 26 46.6 19.7   704 – Lincoln Laboratory ETS, New Mexico MPS 116743
2004 10 09.23251 00 13 11.52 -08 26 45.5 19.4   704 – Lincoln Laboratory ETS, New Mexico MPS 116743
2004 10 09.24353 00 13 11.06 -08 26 43.9 19.1   704 – Lincoln Laboratory ETS, New Mexico MPS 116743
2004 10 09.28234 00 13 09.52 -08 26 40.2 18.7 R 699 – Lowell Observatory-LONEOS MPS 116743
2004 10 09.29533 00 13 08.92 -08 26 38.5   699 – Lowell Observatory-LONEOS MPS 116743
2004 10 09.30833 00 13 08.36 -08 26 37.6   699 – Lowell Observatory-LONEOS MPS 116743
2004 10 09.32133 00 13 07.80 -08 26 35.7   699 – Lowell Observatory-LONEOS MPS 116743
2007 03 14.33059 11 52 13.47 +08 31 17.0 21.6 V G96 – Mt. Lemmon Survey MPS 203052
2007 03 14.33943 11 52 12.97 +08 31 19.9 21.7 V G96 – Mt. Lemmon Survey MPS 203052
2007 03 14.34860 11 52 12.46 +08 31 23.2 21.3 V G96 – Mt. Lemmon Survey MPS 203052
2007 03 14.35775 11 52 11.96 +08 31 26.4 21.5 V G96 – Mt. Lemmon Survey MPS 203052
2008 07 11.69179 22 41 03.19 -18 25 28.1 19.1 V E12 – Siding Spring Survey MPS 252635
2008 07 11.69794 22 41 03.44 -18 25 29.6 19.2 V E12 – Siding Spring Survey MPS 252635
2008 07 11.70406 22 41 03.66 -18 25 30.4 19.2 V E12 – Siding Spring Survey MPS 252635
2008 07 11.71020 22 41 03.91 -18 25 31.2 19.1 V E12 – Siding Spring Survey MPS 252635
2008 08 05.56072 22 47 32.42 -20 14 42.3 18.5 V E12 – Siding Spring Survey MPS 253522
2008 08 05.57159 22 47 32.28 -20 14 45.9 18.4 V E12 – Siding Spring Survey MPS 253522
2008 08 05.58245 22 47 32.10 -20 14 49.7 18.3 V E12 – Siding Spring Survey MPS 253522
2008 08 05.59341 22 47 31.99 -20 14 55.1 18.0 V E12 – Siding Spring Survey MPS 253522
2008 08 23.27198 22 39 56.31 -21 42 44.2 18.6   704 – Lincoln Laboratory ETS, New Mexico MPS 254477
2008 08 23.28508 22 39 55.78 -21 42 47.3 18.6   704 – Lincoln Laboratory ETS, New Mexico MPS 254477
2008 08 23.29807 22 39 55.28 -21 42 50.1 18.7   704 – Lincoln Laboratory ETS, New Mexico MPS 254477
2008 08 23.31117 22 39 54.77 -21 42 53.5 19.0   704 – Lincoln Laboratory ETS, New Mexico MPS 254477
2008 08 23.32421 22 39 54.20 -21 42 56.3 18.9   704 – Lincoln Laboratory ETS, New Mexico MPS 254477
2008 08 23.48551 22 39 48.99 -21 43 18.9 18.2 V E12 – Siding Spring Survey MPS 254477
2008 08 23.49433 22 39 48.60 -21 43 21.1 18.4 V E12 – Siding Spring Survey MPS 254477
2008 08 23.50317 22 39 48.27 -21 43 23.1 18.2 V E12 – Siding Spring Survey MPS 254477
2008 08 23.51198 22 39 47.91 -21 43 25.3 18.2 V E12 – Siding Spring Survey MPS 254477
2012 06 16.54716 20 22 23.155 -25 50 58.48 19.3 w F51 – Pan-STARRS 1, Haleakala MPS 427303
2012 06 16.56109 20 22 23.332 -25 51 03.28 19.4 w F51 – Pan-STARRS 1, Haleakala MPS 427303
2012 06 16.57499 20 22 23.515 -25 51 08.12 19.3 w F51 – Pan-STARRS 1, Haleakala MPS 427303
2012 08 06.50563 20 02 53.19 -31 08 58.8 18.9 V E12 – Siding Spring Survey MPS 429032
2012 08 06.52271 20 02 52.54 -31 09 01.9 18.3 V E12 – Siding Spring Survey MPS 429032
2012 08 06.52932 20 02 52.29 -31 09 03.0 18.4 V E12 – Siding Spring Survey MPS 429032
2012 08 06.53595 20 02 52.04 -31 09 04.1 18.7 V E12 – Siding Spring Survey MPS 429032
2012 09 14.50073 20 09 39.16 -29 44 36.4 19.6 V E12 – Siding Spring Survey MPS 431823
2012 09 14.51193 20 09 39.74 -29 44 31.8 19.2 V E12 – Siding Spring Survey MPS 431823
2012 09 14.52333 20 09 40.35 -29 44 26.8 19.6 V E12 – Siding Spring Survey MPS 431823
2012 09 14.53469 20 09 40.82 -29 44 22.8 18.7 V E12 – Siding Spring Survey MPS 431823
2017 12 15.34275 07 10 33.67 +26 34 30.7 21.8 G G96 – Mt. Lemmon Survey MPS 851252
2017 12 15.34801 07 10 33.43 +26 34 31.3 20.4 G G96 – Mt. Lemmon Survey MPS 851252
2017 12 15.35325 07 10 33.19 +26 34 32.9 21.1 G G96 – Mt. Lemmon Survey MPS 851252
2020 05 20.43471 16 46 06.435 -22 37 17.95 19.8 w F51 – Pan-STARRS 1, Haleakala MPS 1194404
2020 05 20.45274 16 46 05.407 -22 37 20.13 19.8 w F51 – Pan-STARRS 1, Haleakala MPS 1194404
2020 05 20.46235 16 46 04.856 -22 37 21.24 19.8 w F51 – Pan-STARRS 1, Haleakala MPS 1194404
2020 05 24.39833 16 42 22.720 -22 44 42.19 19.6 w F51 – Pan-STARRS 1, Haleakala MPS 1199103
2020 05 24.40705 16 42 22.178 -22 44 43.21 19.6 w F51 – Pan-STARRS 1, Haleakala MPS 1199103
2020 05 24.41579 16 42 21.633 -22 44 44.13 19.6 w F51 – Pan-STARRS 1, Haleakala MPS 1199103
2020 05 24.42456 16 42 21.088 -22 44 45.18 19.6 w F51 – Pan-STARRS 1, Haleakala MPS 1199103
2020 05 27.35519 16 39 23.44 -22 49 57.9 18.7 G G96 – Mt. Lemmon Survey MPS 1199103
2020 05 27.36004 16 39 23.15 -22 49 59.3   G96 – Mt. Lemmon Survey MPS 1199103
2020 05 27.36488 16 39 22.82 -22 49 59.2 19.6 G G96 – Mt. Lemmon Survey MPS 1199103
2020 05 27.36973 16 39 22.47 -22 49 59.7 19.6 G G96 – Mt. Lemmon Survey MPS 1199103
2020 06 11.35309 16 23 09.17 -23 12 52.2 20.0 G G96 – Mt. Lemmon Survey MPS 1204429
2020 06 11.35793 16 23 08.84 -23 12 52.5 19.5 G G96 – Mt. Lemmon Survey MPS 1204429
2020 06 11.36277 16 23 08.55 -23 12 52.5 19.6 G G96 – Mt. Lemmon Survey MPS 1204429
2020 06 11.36762 16 23 08.23 -23 12 53.7 19.8 G G96 – Mt. Lemmon Survey MPS 1204429
2020 07 14.29877 16 02 01.709 -24 05 17.31 20.0 w F51 – Pan-STARRS 1, Haleakala MPS 1223918
2020 07 14.30976 16 02 01.649 -24 05 18.75 20.1 w F51 – Pan-STARRS 1, Haleakala MPS 1223918
2020 07 14.32074 16 02 01.583 -24 05 20.33 20.1 w F51 – Pan-STARRS 1, Haleakala MPS 1223918
2020 07 14.33175 16 02 01.522 -24 05 21.73 20.0 w F51 – Pan-STARRS 1, Haleakala MPS 1223918
2020 07 21.34884 16 02 48.571 -24 23 17.98 20.3 w F51 – Pan-STARRS 1, Haleakala MPS 1223918
2020 07 21.35854 16 02 48.700 -24 23 19.44 20.3 w F51 – Pan-STARRS 1, Haleakala MPS 1223918
2020 07 21.36824 16 02 48.822 -24 23 21.09 20.3 w F51 – Pan-STARRS 1, Haleakala MPS 1223918
2024 03 19.610675 15 59 23.981 -17 37 25.37 21.58 w F52 – Pan-STARRS 2, Haleakala MPS 2155717
2024 03 19.619850 15 59 24.189 -17 37 26.14 21.65 w F52 – Pan-STARRS 2, Haleakala MPS 2155717
2024 03 19.629016 15 59 24.408 -17 37 26.94 21.62 w F52 – Pan-STARRS 2, Haleakala MPS 2155717
2024 03 19.638164 15 59 24.639 -17 37 27.81 21.57 w F52 – Pan-STARRS 2, Haleakala MPS 2155717